Terug naar catalogus

CZ-6A DEB

ActiefPO
NORAD 61308·DEBRIS·🇨🇳 China

Gelanceerd Aug 6, 2024 vanaf Taiyuan Satellite Launch Center

Loading…

Volgende Passages (komende 24 uur)

TLE

VersSource: Space-Track

Epoch: Sep 14, 2026, 09:44 UTC

1 61308U 24140TV  26257.40557902  .00001876  00000-0  32376-3 0  9999
2 61308  88.8954 248.7775 0125611 292.5669  66.2293 14.62973082109074

Volg CZ-6A DEB in realtime met AllMySat

Download on the App Store